This is the latest recevied weather packets stored in our database for station/object 9W2JEK-2. If no packets are shown the sender has not sent any weather packets the latest 10 day(s).
| Time | Temp. | Humidity | Pressure | Rain* | Wind** | Luminosity | Snow |
|---|---|---|---|---|---|---|---|
| 1777760472 | 32.22° C | 63% | 1005.3 hPa | - | - | - | - |
| 1777757763 | 32.22° C | 65% | 1005.3 hPa | - | - | - | - |
| 1777756872 | 32.22° C | 65% | 1005.5 hPa | - | - | - | - |
| 1777756468 | 31.67° C | 65% | 1005.5 hPa | - | - | - | - |
| 1777753290 | 32.22° C | 65% | 1005.4 hPa | - | - | - | - |
| 1777750572 | 32.22° C | 64% | 1005.7 hPa | - | - | - | - |
| 1777749672 | 32.78° C | 61% | 1005.9 hPa | - | - | - | - |
| 1777748772 | 32.22° C | 64% | 1006 hPa | - | - | - | - |
| 1777746972 | 32.22° C | 63% | 1006.1 hPa | - | - | - | - |
| 1777743372 | 32.22° C | 64% | 1006.7 hPa | - | - | - | - |
| 1777741573 | 32.22° C | 64% | 1007 hPa | - | - | - | - |
| 1777739771 | 32.22° C | 63% | 1007.3 hPa | - | - | - | - |
| 1777737971 | 32.22° C | 63% | 1007.4 hPa | - | - | - | - |
| 1777737071 | 32.22° C | 63% | 1007.6 hPa | - | - | - | - |
| 1777736170 | 32.22° C | 62% | 1007.6 hPa | - | - | - | - |
| 1777735270 | 32.22° C | 63% | 1007.5 hPa | - | - | - | - |
| 1777734370 | 32.22° C | 63% | 1007.6 hPa | - | - | - | - |
| 1777733469 | 32.22° C | 63% | 1007.6 hPa | - | - | - | - |
| 1777732569 | 32.22° C | 64% | 1007.4 hPa | - | - | - | - |
| 1777731669 | 32.22° C | 62% | 1007.3 hPa | - | - | - | - |
| 1777730769 | 32.22° C | 61% | 1007.1 hPa | - | - | - | - |
| 1777729869 | 32.22° C | 61% | 1007 hPa | - | - | - | - |
| 1777728969 | 32.22° C | 61% | 1006.7 hPa | - | - | - | - |
| 1777728069 | 32.22° C | 61% | 1006.4 hPa | - | - | - | - |
| 1777727169 | 32.22° C | 62% | 1006.2 hPa | - | - | - | - |
* Rain since midnight (hover to see other rain measurements)
** Current wind speed in m/s (hover to see current wind gust speed)